User: anonymous
Location: Whitehorse
(60.7170°N, 135.0500°W)
Time: 05:44:04
(UTC-07:00)
Language:

Cosmos 2219 Rocket - Orbit

View from above orbital plane
View from above orbital plane
View from above satellite
View from above satellite

Ground track
Ground track

The orbit data is extracted from the following two-line orbital elements,

1 22220U 92076B   14209.14560779 -.00000273  00000-0 -11340-3 0  3627
2 22220 071.0013 119.8952 0010701 076.3617 024.2512 14.16319142121389
Epoch (UTC): 28 July 2014 03:29:40
Eccentricity: 0.0010701
inclination: 71.0013°
perigee height: 830 km
apogee height: 845 km
right ascension of ascending node: 119.8952°
argument of perigee: 76.3617°
revolutions per day: 14.16319142
mean anomaly at epoch: 24.2512°
orbit number at epoch: 12138

The dashed part of the orbit path shows where the satellite is in the earth's shadow,  

DLR